| time (UTC) | temp F | wind direction | speed MPH | gust MPH | rain 1hr in | rain 24hr in | rain mn in | humidity % | barometer mb |
| 20260505122717 | 54 | 45 | 1.0 | 5.0 | 0.00 | 0.19 | 0.19 | 92 | 1008.2 |
| 20260505121710 | 53 | 90 | 2.0 | 7.0 | 0.00 | 0.19 | 0.19 | 92 | 1008.2 |
| 20260505120701 | 53 | 23 | 3.0 | 9.0 | 0.00 | 0.19 | 0.19 | 93 | 1008.2 |
| 20260505115700 | 53 | 23 | 2.0 | 9.0 | 0.00 | 0.19 | 0.19 | 94 | 1008.3 |
| 20260505114649 | 53 | 0 | 3.0 | 8.0 | 0.00 | 0.19 | 0.19 | 94 | 1008.4 |
| 20260505113628 | 53 | 0 | 2.0 | 7.0 | 0.00 | 0.19 | 0.19 | 95 | 1008.4 |
| 20260505112600 | 53 | 0 | 2.0 | 5.0 | 0.00 | 0.19 | 0.19 | 95 | 1008.4 |
| 20260505111541 | 52 | 45 | 1.0 | 5.0 | 0.00 | 0.19 | 0.19 | 96 | 1008.6 |
| 20260505110509 | 52 | 0 | 2.0 | 9.0 | 0.00 | 0.19 | 0.19 | 96 | 1008.6 |
| 20260505100341 | 51 | 45 | 1.0 | 6.0 | 0.00 | 0.19 | 0.19 | 98 | 1008.6 |
| 20260505094336 | 51 | 45 | 3.0 | 8.0 | 0.00 | 0.19 | 0.19 | 98 | 1008.7 |
| 20260505093311 | 51 | 45 | 2.0 | 6.0 | 0.00 | 0.19 | 0.19 | 98 | 1008.7 |
| 20260505092242 | 51 | 45 | 3.0 | 7.0 | 0.00 | 0.19 | 0.19 | 98 | 1008.7 |
| 20260505091213 | 51 | 45 | 2.0 | 7.0 | 0.00 | 0.19 | 0.19 | 98 | 1008.6 |
| 20260505090145 | 51 | 45 | 2.0 | 5.0 | 0.00 | 0.19 | 0.19 | 98 | 1008.6 |
| 20260505085127 | 51 | 23 | 1.0 | 5.0 | 0.00 | 0.19 | 0.19 | 98 | 1008.7 |
| 20260505084053 | 50 | 23 | 1.0 | 4.0 | 0.00 | 0.19 | 0.19 | 98 | 1008.6 |
| 20260505081020 | 50 | 23 | 2.0 | 5.0 | 0.00 | 0.19 | 0.19 | 98 | 1008.6 |
| 20260505080017 | 50 | 23 | 2.0 | 7.0 | 0.00 | 0.19 | 0.19 | 98 | 1008.6 |
| 20260505074942 | 50 | 23 | 2.0 | 6.0 | 0.01 | 0.19 | 0.19 | 97 | 1008.6 |
| 20260505072843 | 50 | 23 | 1.0 | 5.0 | 0.01 | 0.19 | 0.19 | 97 | 1008.6 |
| 20260505071819 | 49 | 315 | 1.0 | 4.0 | 0.01 | 0.19 | 0.19 | 97 | 1008.6 |
| 20260505070754 | 49 | 45 | 2.0 | 6.0 | 0.01 | 0.19 | 0.19 | 97 | 1008.6 |
| 20260505064703 | 49 | 23 | 1.0 | 4.0 | 0.02 | 0.18 | 0.18 | 97 | 1008.6 |
| 20260505063636 | 49 | 23 | 1.0 | 7.0 | 0.02 | 0.18 | 0.18 | 97 | 1008.6 |
| 20260505062618 | 49 | 23 | 1.0 | 4.0 | 0.03 | 0.18 | 0.18 | 97 | 1008.6 |
| 20260505061556 | 49 | 0 | 1.0 | 4.0 | 0.03 | 0.18 | 0.18 | 97 | 1008.6 |
| 20260505060525 | 48 | 23 | 1.0 | 4.0 | 0.03 | 0.17 | 0.17 | 96 | 1008.6 |
| 20260505055457 | 48 | 23 | 1.0 | 6.0 | 0.04 | 0.17 | 0.17 | 96 | 1008.6 |
| 20260505053354 | 48 | 0 | 1.0 | 4.0 | 0.03 | 0.15 | 0.15 | 96 | 1008.7 |
| 20260505051309 | 48 | 23 | 1.0 | 5.0 | 0.05 | 0.14 | 0.14 | 95 | 1008.6 |
| 20260505050245 | 48 | 23 | 1.0 | 5.0 | 0.05 | 0.13 | 0.13 | 95 | 1008.6 |
| 20260505041105 | 49 | 23 | 2.0 | 5.0 | 0.07 | 0.09 | 0.09 | 94 | 1008.6 |
| 20260505040047 | 49 | 23 | 2.0 | 5.0 | 0.07 | 0.07 | 0.07 | 94 | 1008.6 |
| 20260505035007 | 49 | 23 | 1.0 | 5.0 | 0.06 | 0.06 | 0.06 | 93 | 1008.6 |
| 20260505033937 | 49 | 23 | 2.0 | 6.0 | 0.05 | 0.05 | 0.05 | 93 | 1008.7 |
| 20260505032905 | 49 | 338 | 1.0 | 5.0 | 0.04 | 0.04 | 0.04 | 93 | 1008.7 |
| 20260505031848 | 50 | 315 | 1.0 | 4.0 | 0.02 | 0.02 | 0.02 | 92 | 1008.7 |
| 20260505030823 | 50 | 315 | 1.0 | 4.0 | 0.00 | 0.00 | 0.00 | 92 | 1008.7 |
| 20260505025749 | 50 | 23 | 1.0 | 5.0 | 0.00 | 0.00 | 0.00 | 92 | 1008.7 |
| 20260505024715 | 50 | 338 | 1.0 | 6.0 | 0.00 | 0.00 | 0.00 | 91 | 1008.9 |
| 20260505022640 | 50 | 0 | 1.0 | 5.0 | 0.00 | 0.00 | 0.00 | 90 | 1009.0 |
| 20260505021625 | 50 | 23 | 1.0 | 4.0 | 0.00 | 0.00 | 0.00 | 90 | 1009.0 |
| 20260505015545 | 51 | 338 | 1.0 | 4.0 | 0.00 | 0.00 | 0.00 | 89 | 1009.1 |
| 20260505014541 | 51 | 338 | 2.0 | 5.0 | 0.00 | 0.00 | 0.00 | 89 | 1009.0 |
| 20260505013526 | 51 | 0 | 1.0 | 5.0 | 0.00 | 0.00 | 0.00 | 88 | 1009.1 |
| 20260505012510 | 51 | 338 | 1.0 | 5.0 | 0.00 | 0.00 | 0.00 | 88 | 1009.1 |
| 20260505011452 | 51 | 0 | 1.0 | 4.0 | 0.00 | 0.00 | 0.00 | 87 | 1009.2 |
| 20260505010434 | 51 | 0 | 1.0 | 4.0 | 0.00 | 0.00 | 0.00 | 87 | 1009.5 |
| 20260505005415 | 51 | 45 | 0.0 | 4.0 | 0.00 | 0.00 | 0.00 | 87 | 1009.5 |
| 20260505004346 | 52 | 23 | 1.0 | 5.0 | 0.00 | 0.00 | 0.00 | 87 | 1009.5 |
| 20260505003325 | 52 | 23 | 1.0 | 3.0 | 0.00 | 0.00 | 0.00 | 87 | 1009.5 |
| 20260505002252 | 52 | 315 | 1.0 | 5.0 | 0.00 | 0.00 | 0.00 | 87 | 1009.6 |
| 20260505001225 | 52 | 23 | 1.0 | 5.0 | 0.00 | 0.00 | 0.00 | 87 | 1009.6 |
| 20260505000226 | 52 | 23 | 0.0 | 3.0 | 0.00 | 0.00 | 0.00 | 87 | 1009.6 |
| 20260504235211 | 52 | 23 | 1.0 | 4.0 | 0.00 | 0.00 | 0.00 | 87 | 1009.6 |
| 20260504234200 | 53 | 338 | 1.0 | 4.0 | 0.00 | 0.00 | 0.00 | 88 | 1009.6 |
| 20260504232127 | 53 | 23 | 1.0 | 4.0 | 0.00 | 0.00 | 0.00 | 88 | 1009.8 |
| 20260504231120 | 53 | 338 | 1.0 | 3.0 | 0.00 | 0.00 | 0.00 | 88 | 1009.8 |
| 20260504230111 | 53 | 23 | 0.0 | 3.0 | 0.00 | 0.00 | 0.00 | 87 | 1009.8 |
| 20260504225022 | 53 | 0 | 1.0 | 2.0 | 0.00 | 0.00 | 0.00 | 87 | 1009.9 |
| 20260504223955 | 53 | 23 | 0.0 | 3.0 | 0.00 | 0.00 | 0.00 | 87 | 1009.9 |
| 20260504221900 | 54 | 315 | 1.0 | 4.0 | 0.00 | 0.00 | 0.00 | 87 | 1010.1 |
| 20260504220843 | 54 | 315 | 1.0 | 5.0 | 0.00 | 0.00 | 0.00 | 86 | 1010.1 |
| 20260504215842 | 54 | 315 | 1.0 | 4.0 | 0.00 | 0.00 | 0.00 | 86 | 1010.1 |
| 20260504214812 | 55 | 338 | 0.0 | 4.0 | 0.00 | 0.00 | 0.00 | 86 | 1010.1 |
| 20260504211712 | 55 | 315 | 1.0 | 2.0 | 0.00 | 0.00 | 0.00 | 84 | 1010.1 |
| 20260504205649 | 56 | 315 | 0.0 | 1.0 | 0.00 | 0.00 | 0.00 | 83 | 1010.0 |
| 20260504204623 | 56 | 315 | 0.0 | 1.0 | 0.00 | 0.00 | 0.00 | 82 | 1010.1 |
| 20260504203558 | 57 | 315 | 0.0 | 1.0 | 0.00 | 0.00 | 0.00 | 81 | 1010.1 |
| 20260504202526 | 57 | 315 | 0.0 | 1.0 | 0.00 | 0.00 | 0.00 | 80 | 1010.1 |
| 20260504200456 | 58 | 315 | 0.0 | 3.0 | 0.00 | 0.00 | 0.00 | 79 | 1010.0 |
| 20260504195456 | 58 | 315 | 0.0 | 3.0 | 0.00 | 0.00 | 0.00 | 78 | 1010.0 |
| 20260504194443 | 59 | 315 | 1.0 | 4.0 | 0.00 | 0.00 | 0.00 | 77 | 1009.9 |
| 20260504193419 | 59 | 315 | 1.0 | 4.0 | 0.00 | 0.00 | 0.00 | 76 | 1009.8 |
| 20260504192410 | 60 | 315 | 1.0 | 4.0 | 0.00 | 0.00 | 0.00 | 75 | 1009.8 |
| 20260504191343 | 61 | 315 | 1.0 | 3.0 | 0.00 | 0.00 | 0.00 | 74 | 1009.8 |
| 20260504190310 | 62 | 315 | 0.0 | 3.0 | 0.00 | 0.00 | 0.00 | 73 | 1009.7 |
| 20260504185307 | 62 | 315 | 2.0 | 5.0 | 0.00 | 0.00 | 0.00 | 73 | 1009.6 |
| 20260504184238 | 62 | 315 | 1.0 | 5.0 | 0.00 | 0.00 | 0.00 | 73 | 1009.5 |
| 20260504183218 | 63 | 315 | 1.0 | 4.0 | 0.00 | 0.00 | 0.00 | 72 | 1009.5 |
| 20260504182149 | 63 | 315 | 2.0 | 4.0 | 0.00 | 0.00 | 0.00 | 71 | 1009.5 |
| 20260504181132 | 63 | 315 | 2.0 | 4.0 | 0.00 | 0.00 | 0.00 | 71 | 1009.4 |
| 20260504180117 | 64 | 338 | 2.0 | 6.0 | 0.00 | 0.00 | 0.00 | 70 | 1009.4 |
| 20260504175052 | 64 | 0 | 2.0 | 5.0 | 0.00 | 0.00 | 0.00 | 70 | 1009.4 |
| 20260504174034 | 64 | 315 | 2.0 | 5.0 | 0.00 | 0.00 | 0.00 | 70 | 1009.5 |
| 20260504173010 | 64 | 315 | 3.0 | 6.0 | 0.00 | 0.00 | 0.00 | 69 | 1009.5 |
| 20260504171944 | 64 | 315 | 2.0 | 7.0 | 0.00 | 0.00 | 0.00 | 68 | 1009.4 |
| 20260504150535 | 68 | 248 | 4.0 | 11.0 | 0.00 | 0.00 | 0.00 | 60 | 1009.6 |
| 20260504140406 | 69 | 315 | 3.0 | 7.0 | 0.00 | 0.00 | 0.00 | 59 | 1009.9 |
| 20260504130141 | 68 | 270 | 6.0 | 14.0 | 0.00 | 0.00 | 0.00 | 63 | 1010.0 |